Date,TemperatureHighF,TemperatureAvgF,TemperatureLowF,DewpointHighF,DewpointAvgF,DewpointLowF,HumidityHigh,HumidityAvg,HumidityLow,PressureMaxIn,PressureMinIn,WindSpeedMaxMPH,WindSpeedAvgMPH,GustSpeedMaxMPH,PrecipitationSumIn
2013-1-1,35,29,16,22,12,-3,63,49,34,30.00,29.80,20,7,32,0.00
2013-1-2,28,17,9,10,3,-6,69,52,39,30.17,29.97,15,4,23,0.00
2013-1-3,26,14,3,8,-8,-24,57,39,12,30.20,30.05,11,4,17,0.00
2013-1-4,38,29,21,19,15,8,69,56,44,30.05,29.90,16,6,28,0.00
2013-1-5,41,33,25,19,15,10,63,47,29,30.33,29.93,17,4,28,0.00
2013-1-6,42,32,24,24,21,14,85,65,44,30.30,30.02,13,3,21,0.00
2013-1-7,41,33,23,25,16,4,74,52,23,30.46,30.04,10,3,17,0.00
2013-1-8,46,35,23,24,20,13,72,57,38,30.43,30.34,14,5,24,0.00
2013-1-9,43,37,26,32,25,19,81,62,39,30.46,30.10,21,5,34,0.05
2013-1-10,47,39,30,24,18,14,61,43,28,30.60,30.14,24,7,46,0.06
2013-1-11,36,32,26,32,23,17,93,68,51,30.60,30.28,5,1,8,0.09
2013-1-12,42,38,34,41,37,32,99,96,92,30.30,30.20,5,1,8,0.02
2013-1-13,49,44,40,48,44,40,99,99,96,30.23,30.08,11,3,18,0.00
2013-1-14,58,48,37,52,38,20,99,74,32,30.34,29.95,14,5,25,0.00
2013-1-15,40,35,31,24,21,18,68,55,44,30.41,30.29,8,2,12,0.00
2013-1-16,33,30,27,31,26,19,94,86,59,30.32,29.91,6,1,9,0.00
2013-1-17,41,33,26,30,22,7,93,65,41,30.17,29.91,11,3,20,0.13
2013-1-18,26,20,15,9,-8,-20,47,29,14,30.49,30.12,15,5,27,0.00
2013-1-19,46,35,18,27,15,-1,70,46,28,30.42,29.96,20,8,30,0.00
2013-1-20,50,38,25,28,18,-7,71,46,12,30.00,29.64,24,10,41,0.06
2013-1-21,27,21,17,16,4,-4,83,50,27,30.15,29.85,14,3,22,0.00
2013-1-22,22,17,9,16,-2,-21,84,48,15,30.14,29.83,19,6,30,0.00
2013-1-23,14,8,3,-1,-15,-26,67,36,16,30.19,30.11,18,6,31,0.00
2013-1-24,19,8,-1,-15,-20,-29,46,28,11,30.28,30.13,16,7,28,0.00
2013-1-25,22,13,5,8,-17,-30,75,27,10,30.36,30.11,12,4,21,0.00
2013-1-26,24,14,7,8,-3,-21,77,50,14,30.30,30.06,12,4,21,0.00
2013-1-27,32,19,9,-2,-9,-22,55,31,10,30.52,30.29,12,4,21,0.00
2013-1-28,28,22,17,22,7,-8,88,56,23,30.50,30.08,7,1,11,0.00
2013-1-29,33,28,23,31,25,20,94,86,74,30.27,30.08,0,0,0,0.02
2013-1-30,57,46,32,57,46,31,99,98,94,30.22,29.53,19,6,34,0.18
2013-1-31,59,45,28,59,32,7,99,66,26,29.68,29.09,27,12,47,0.70
2013-2-1,31,25,19,9,0,-8,53,34,19,30.14,29.67,19,8,32,0.01
2013-2-2,31,22,14,10,-1,-7,64,37,20,30.30,30.11,13,5,21,0.00
2013-2-3,26,22,17,18,14,10,81,71,58,30.11,29.81,7,2,12,0.00
2013-2-4,28,22,18,11,4,-6,66,47,23,30.00,29.80,18,6,33,0.00
2013-2-5,30,22,18,17,8,2,79,55,36,30.08,29.99,8,2,12,0.00
2013-2-6,36,28,22,21,10,-10,82,53,22,30.36,29.98,15,4,24,0.01
2013-2-7,35,24,15,1,-8,-20,49,26,10,30.57,30.36,8,2,15,0.00
2013-2-8,24,21,16,18,13,1,84,72,38,30.52,29.69,23,8,38,0.01
2013-2-9,23,17,13,15,6,-7,84,63,40,30.27,29.67,21,10,37,0.02
2013-2-10,42,24,12,-1,-12,-21,39,22,10,30.46,30.27,13,4,20,0.00
2013-2-11,44,34,23,43,25,-8,98,74,24,30.41,29.70,11,3,23,0.19
2013-2-12,42,37,33,36,23,19,85,57,43,29.97,29.71,17,7,34,0.02
2013-2-13,46,35,29,19,16,11,59,46,25,29.95,29.78,10,3,14,0.00
2013-2-14,48,36,28,20,13,4,62,41,17,30.06,29.80,9,2,13,0.00
2013-2-15,54,39,27,30,25,18,91,59,31,30.07,29.98,12,4,20,0.00
2013-2-16,38,33,26,27,22,8,87,65,39,30.03,29.80,11,3,20,0.02
2013-2-17,26,19,13,15,-2,-16,78,43,19,29.79,29.51,22,10,42,0.01
2013-2-18,29,20,10,-9,-15,-24,39,23,10,30.16,29.78,20,9,36,0.00
2013-2-19,46,35,22,39,16,-15,91,51,18,29.97,29.41,12,3,23,0.18
2013-2-20,39,29,23,34,10,-3,85,47,23,29.60,29.38,20,9,33,0.02
2013-2-21,33,25,21,10,5,-1,57,42,25,30.02,29.58,21,8,34,0.00
2013-2-22,45,31,21,17,12,4,67,47,19,30.18,30.02,16,3,23,0.00
2013-2-23,35,32,30,29,23,17,90,70,58,30.13,29.71,8,2,14,0.00
2013-2-24,34,32,30,32,30,28,93,92,89,29.71,29.53,12,2,21,0.08
2013-2-25,42,33,27,34,28,25,93,81,62,30.05,29.71,8,1,11,0.17
2013-2-26,47,37,33,31,25,20,81,63,41,30.14,29.95,6,1,10,0.00
2013-2-27,40,35,32,38,33,25,96,91,72,29.96,29.41,13,5,22,0.99
2013-2-28,49,37,33,38,32,30,94,84,62,29.47,29.36,6,1,12,0.00
2013-3-1,44,37,33,31,24,19,84,62,44,29.51,29.36,12,4,21,0.01
2013-3-2,39,35,31,22,21,19,64,57,46,29.51,29.46,12,4,17,0.00
2013-3-3,42,32,29,26,21,17,80,64,43,29.47,29.40,13,4,17,0.00
2013-3-4,39,31,25,20,15,12,65,52,35,29.58,29.42,17,8,27,0.00
2013-3-5,48,36,27,26,19,15,67,52,31,29.88,29.58,11,4,18,0.00
2013-3-6,37,34,31,32,29,25,89,82,64,29.90,29.84,17,6,29,0.09
2013-3-7,32,30,28,28,26,23,92,87,74,29.88,29.80,18,9,37,0.00
2013-3-8,39,32,28,30,24,11,92,74,33,29.97,29.75,18,8,29,0.02
2013-3-9,57,40,29,25,10,-4,81,36,10,30.16,29.96,15,4,22,0.00
2013-3-10,52,38,27,27,23,18,85,60,28,30.21,30.10,9,2,16,0.00
2013-3-11,54,41,33,38,30,27,84,66,37,30.13,29.96,10,4,16,0.00
2013-3-12,55,48,42,52,45,38,98,90,72,29.96,29.55,14,4,24,0.40
2013-3-13,50,41,35,41,22,6,85,51,17,29.62,29.55,13,5,23,0.00
2013-3-14,36,28,20,18,4,-6,51,36,23,29.65,29.54,18,8,31,0.01
2013-3-15,40,27,17,25,7,-18,75,45,10,29.68,29.46,20,6,28,0.00
2013-3-16,41,32,25,23,3,-16,70,33,10,29.69,29.50,10,3,17,0.00
2013-3-17,37,29,24,9,-4,-20,53,27,10,30.11,29.68,18,4,26,0.00
2013-3-18,39,27,16,22,-8,-24,79,26,10,30.24,30.00,8,2,14,0.00
2013-3-19,33,30,26,31,27,20,92,88,74,30.00,29.45,15,4,26,0.07
2013-3-20,38,30,23,25,12,4,91,50,26,29.62,29.52,18,6,28,0.08
2013-3-21,43,29,23,22,11,-4,75,49,17,29.62,29.41,8,2,12,0.00
2013-3-22,39,31,23,14,8,-1,50,39,19,29.57,29.43,15,6,29,0.00
2013-3-23,41,33,26,17,9,0,60,39,19,29.59,29.49,18,8,33,0.04
2013-3-24,49,41,32,14,9,1,45,28,14,29.64,29.55,13,4,18,0.04
2013-3-25,43,35,30,24,19,14,60,52,41,29.59,29.34,15,5,26,0.00
2013-3-26,47,37,34,21,17,1,57,47,16,29.58,29.37,10,4,18,0.00
2013-3-27,53,46,33,23,10,-4,51,27,10,29.70,29.59,13,5,23,0.00
2013-3-28,50,42,34,29,23,16,80,51,26,29.85,29.70,10,3,14,0.01
2013-3-29,58,46,37,26,21,3,63,40,11,29.88,29.81,13,4,19,0.00
2013-3-30,57,45,37,26,11,-5,57,32,10,29.93,29.83,12,4,20,0.00
2013-3-31,58,43,32,36,16,-3,79,39,10,29.94,29.54,13,3,21,0.06
2013-4-1,61,44,32,40,28,-6,89,58,17,29.62,29.35,21,6,33,0.19
2013-4-2,38,31,27,14,2,-12,51,29,12,29.77,29.62,21,8,37,0.01
2013-4-3,43,34,27,13,-2,-16,49,24,10,29.98,29.75,20,9,34,0.00
2013-4-4,56,40,27,18,3,-8,46,24,10,30.11,29.73,14,6,24,0.00
2013-4-5,60,44,35,23,13,-3,60,34,10,29.74,29.35,18,7,26,0.00
2013-4-6,48,37,29,19,-5,-17,48,19,10,30.00,29.58,17,5,30,0.00
2013-4-7,55,42,29,36,14,-10,70,35,10,30.00,29.68,21,6,34,0.00
2013-4-8,71,54,42,38,29,9,84,48,10,29.77,29.65,12,4,18,0.00
2013-4-9,68,59,45,50,39,35,91,52,33,29.76,29.56,18,5,27,0.06
2013-4-10,68,59,45,48,42,38,89,57,33,29.67,29.55,7,3,18,0.19
2013-4-11,57,47,38,45,31,14,93,59,23,29.83,29.52,11,4,17,0.06
2013-4-12,38,36,35,33,31,27,92,83,63,29.84,29.48,14,4,22,0.44
2013-4-13,53,43,33,35,30,24,93,63,34,29.64,29.44,11,4,17,0.07
2013-4-14,52,44,37,33,23,11,75,47,21,29.91,29.61,15,4,27,0.00
2013-4-15,62,47,34,26,22,14,60,38,16,30.07,29.64,8,2,13,0.00
2013-4-16,66,51,38,48,37,25,85,60,31,30.07,29.77,17,6,28,0.01
2013-4-17,60,55,49,50,28,9,87,40,13,30.03,29.77,14,4,20,0.00
2013-4-18,64,52,40,42,22,8,70,33,14,30.10,29.83,13,4,24,0.00
2013-4-19,73,61,51,62,56,42,99,84,54,29.83,29.36,21,7,34,0.00
2013-4-20,64,51,40,62,33,11,97,56,17,29.92,29.33,18,7,30,0.34
2013-4-21,57,43,32,24,9,-6,56,29,10,30.34,29.92,14,4,26,0.00
2013-4-22,52,42,32,27,20,0,70,47,14,30.40,30.25,11,4,20,0.00
2013-4-23,39,37,35,38,33,25,98,85,62,30.25,29.79,14,6,21,0.01
2013-4-24,77,56,39,45,37,13,98,60,10,29.79,29.51,14,6,24,0.00
2013-4-25,63,54,45,50,23,-1,89,40,10,29.97,29.53,16,5,27,0.02
2013-4-26,65,51,42,30,22,13,61,32,17,30.11,29.97,8,3,13,0.00
2013-4-27,70,53,37,34,25,8,74,40,10,30.10,29.96,11,2,14,0.00
2013-4-28,73,57,40,38,21,8,73,32,10,30.02,29.89,11,3,18,0.00
2013-4-29,71,57,47,41,24,-1,70,35,10,29.96,29.88,13,4,19,0.00
2013-4-30,77,61,48,31,13,1,45,18,10,30.05,29.94,7,2,11,0.00
2013-5-1,74,61,42,37,17,5,51,22,10,30.16,30.05,8,2,13,0.00
2013-5-2,84,62,47,38,28,13,58,34,10,30.17,30.01,11,2,17,0.00
2013-5-3,65,52,42,38,34,30,73,52,32,30.20,30.07,14,4,21,0.00
2013-5-4,67,54,39,43,30,8,78,46,13,30.07,29.97,11,2,17,0.00
2013-5-5,68,51,36,36,32,22,86,53,19,30.01,29.92,8,2,14,0.00
2013-5-6,80,58,40,46,34,14,89,49,10,29.97,29.82,8,2,14,0.00
2013-5-7,83,66,48,52,45,35,79,50,22,29.88,29.79,9,2,16,0.00
2013-5-8,72,62,54,62,56,50,99,82,60,29.90,29.75,11,3,21,0.47
2013-5-9,72,60,56,62,58,54,99,93,60,29.75,29.59,5,1,9,0.24
2013-5-10,82,68,52,61,51,38,99,62,24,29.67,29.60,8,2,16,0.01
2013-5-11,67,62,57,61,58,51,99,88,65,29.63,29.40,14,4,24,0.13
2013-5-12,69,59,48,60,47,24,99,68,31,29.53,29.30,15,4,24,0.05
2013-5-13,57,48,41,28,22,15,56,37,20,29.73,29.53,16,5,24,0.00
2013-5-14,58,49,42,30,23,14,61,38,19,29.75,29.68,11,3,19,0.00
2013-5-15,66,52,37,51,36,20,90,58,20,29.75,29.39,13,3,23,0.01
2013-5-16,81,69,54,51,30,14,88,32,10,29.44,29.36,21,6,33,0.02
2013-5-17,71,61,50,38,30,10,64,34,10,29.92,29.60,20,8,20,0.00
2013-5-18,73,56,44,43,37,17,80,53,12,30.00,29.87,17,4,17,0.00
2013-5-19,71,59,50,54,46,41,97,67,34,30.03,29.91,19,6,19,0.06
2013-5-20,83,68,55,62,59,54,99,76,48,29.91,29.64,23,5,23,0.02
2013-5-21,90,68,50,67,60,49,98,79,39,29.76,29.26,16,4,16,0.19
2013-5-22,82,62,49,69,57,49,99,86,61,29.77,29.57,27,4,27,0.13
2013-5-23,73,64,55,71,64,53,99,97,89,29.63,29.51,24,6,24,0.21
2013-5-24,72,62,47,67,59,46,99,92,70,29.54,29.36,23,6,23,0.54
2013-5-25,50,44,40,50,43,36,99,95,85,29.53,29.44,27,11,27,0.31
2013-5-26,57,48,38,38,35,31,93,65,39,29.81,29.43,31,13,31,0.02
2013-5-27,73,56,41,38,30,10,84,45,10,29.87,29.79,25,6,25,0.00
2013-5-28,78,64,47,53,34,12,80,38,11,29.94,29.86,16,4,16,0.00
2013-5-29,81,64,57,68,61,53,99,90,63,29.98,29.73,26,4,26,0.64
2013-5-30,89,75,62,69,66,62,99,75,45,30.02,29.94,18,7,18,0.01
2013-5-31,94,85,69,71,63,54,90,51,28,30.02,29.88,21,7,21,0.00
2013-6-1,92,80,67,68,63,53,81,57,30,29.91,29.80,21,8,21,0.00
2013-6-2,89,75,67,68,65,59,93,73,38,29.82,29.66,30,10,30,0.01
2013-6-3,80,69,58,68,61,40,99,79,46,29.78,29.69,21,5,21,0.46
2013-6-4,73,62,51,45,38,34,62,43,26,30.01,29.76,24,10,24,0.00
2013-6-5,76,67,51,47,41,32,81,41,23,30.11,30.01,17,5,17,0.00
2013-6-6,76,64,54,52,46,39,85,54,32,30.10,30.01,15,3,15,0.05
2013-6-7,58,54,52,57,54,51,99,97,85,30.02,29.71,19,5,19,1.61
2013-6-8,77,61,51,63,56,51,99,84,59,29.93,29.55,21,9,21,0.45
2013-6-9,80,68,58,58,53,46,91,61,32,30.09,29.93,19,7,19,0.00
2013-6-10,73,64,57,62,57,51,99,79,53,30.11,29.91,9,3,9,0.66
2013-6-11,63,58,55,60,57,54,99,97,88,29.91,29.50,14,4,14,0.59
2013-6-12,70,63,57,59,53,48,99,71,45,30.43,29.49,34,11,34,0.01
2013-6-13,65,57,50,58,52,49,99,82,68,29.75,29.58,10,2,10,0.86
2013-6-14,78,64,50,54,50,43,99,66,31,29.71,29.55,17,7,17,0.53
2013-6-15,78,64,59,51,44,30,65,51,18,29.88,29.71,14,5,14,0.00
2013-6-16,77,67,55,61,50,39,76,54,36,29.88,29.64,20,6,20,0.00
2013-6-17,85,70,61,65,58,51,99,71,33,29.83,29.71,35,7,35,0.28
2013-6-18,79,62,56,64,60,56,99,93,56,29.86,29.80,20,4,20,1.00
2013-6-19,80,65,54,57,46,27,99,58,17,30.07,29.83,14,5,14,0.08
2013-6-20,81,68,53,56,45,31,79,47,19,30.17,30.07,16,4,16,0.00
2013-6-21,84,71,56,61,56,52,91,62,35,30.17,30.11,16,6,16,0.00
2013-6-22,86,73,62,60,55,47,80,56,26,30.14,30.03,19,6,19,0.00
2013-6-23,90,77,64,69,62,54,81,62,44,30.08,29.93,24,8,24,0.00
2013-6-24,92,79,70,72,68,64,97,72,43,29.96,29.82,19,7,26,0.05
2013-6-25,91,82,69,67,65,60,88,59,37,29.88,29.70,18,6,18,0.01
2013-6-26,89,81,69,69,66,63,93,62,47,29.98,29.71,18,6,18,0.00
2013-6-27,76,68,64,70,67,63,99,95,79,29.97,29.86,8,2,8,0.01
2013-6-28,83,70,60,77,68,60,99,94,73,29.86,29.62,22,5,22,0.30
2013-6-29,84,75,70,72,69,64,99,83,54,29.85,29.64,23,8,23,0.00
2013-6-30,86,76,69,73,70,66,99,83,52,30.06,29.85,17,6,17,0.00
2013-7-1,81,74,71,77,73,70,99,96,80,30.20,30.06,13,4,13,0.21
2013-7-2,85,76,67,75,73,66,99,90,67,30.32,30.19,19,6,19,0.00
2013-7-3,88,79,64,74,71,63,99,77,54,30.34,30.27,21,8,21,0.00
2013-7-4,92,85,73,75,72,69,99,67,49,30.34,30.23,22,9,22,0.00
2013-7-5,93,86,75,75,72,67,92,64,43,30.30,30.17,19,8,19,0.00
2013-7-6,90,82,76,74,70,65,90,70,44,30.22,30.12,19,7,19,0.00
2013-7-7,93,80,72,74,69,64,94,69,48,30.17,30.05,14,3,14,0.00
2013-7-8,90,80,69,75,70,64,99,76,43,30.19,30.04,17,5,17,0.00
2013-7-9,78,70,66,71,68,65,99,94,75,30.22,30.16,10,3,10,0.01
2013-7-10,88,77,66,76,72,66,99,87,60,30.18,29.92,19,4,19,0.11
2013-7-11,84,78,72,76,71,65,99,81,56,30.06,29.91,12,4,13,0.13
2013-7-12,80,73,66,66,58,53,82,60,44,30.32,30.06,17,6,17,0.00
2013-7-13,72,66,62,70,62,54,99,89,64,30.42,30.32,11,4,11,0.02
2013-7-14,92,83,72,75,70,64,99,67,43,30.42,30.33,14,4,14,0.00
2013-7-15,94,80,72,76,70,61,99,74,33,30.34,30.23,14,3,14,0.00
2013-7-16,95,84,74,70,64,56,78,54,29,30.30,30.23,16,5,16,0.00
2013-7-17,94,82,73,76,69,59,87,66,36,30.31,30.14,14,4,14,0.00
2013-7-18,91,82,77,74,72,67,84,71,46,30.14,29.92,15,7,15,0.00
2013-7-19,94,84,76,78,73,65,91,71,40,29.94,29.72,27,7,27,0.00
2013-7-20,88,82,78,76,74,70,91,77,60,29.75,29.70,17,7,17,0.00
2013-7-21,88,80,69,67,60,51,84,53,28,29.96,29.82,13,4,13,0.00
2013-7-22,89,74,66,71,67,60,99,81,41,29.99,29.86,10,3,10,0.00
2013-7-23,86,72,68,80,71,68,99,97,70,29.86,29.52,18,2,18,0.79
2013-7-24,83,76,65,73,64,52,99,70,40,29.93,29.57,18,6,18,0.00
2013-7-25,64,59,57,59,53,45,99,80,61,30.07,29.93,16,6,16,0.06
2013-7-26,74,64,60,66,60,59,99,89,66,30.03,29.93,20,6,20,0.24
2013-7-27,85,72,60,67,61,53,99,73,37,30.04,29.96,13,4,13,0.00
2013-7-28,88,73,64,71,65,58,99,78,39,30.00,29.93,10,2,10,0.00
2013-7-29,88,75,66,70,63,55,99,69,38,30.03,29.28,17,4,17,0.00
2013-7-30,81,72,62,57,52,47,67,50,32,30.08,29.36,18,6,18,0.00
2013-7-31,86,73,62,64,53,40,87,54,24,30.12,29.36,11,4,11,0.00
2013-8-1,82,68,62,66,62,57,99,84,45,30.03,29.88,14,3,14,0.15
2013-8-2,82,72,64,69,60,49,99,72,33,29.90,29.81,12,3,21,0.38
2013-8-3,80,70,63,64,60,54,98,75,42,29.88,29.80,11,4,21,0.01
2013-8-4,80,68,60,60,52,42,90,58,28,29.91,29.79,14,3,23,0.02
2013-8-5,77,68,57,52,38,24,78,41,15,29.99,29.90,13,4,22,0.00
2013-8-6,84,74,53,54,41,32,85,34,20,29.99,29.92,7,2,13,0.00
2013-8-7,82,70,58,60,52,31,92,59,21,30.01,29.93,9,2,14,0.00
2013-8-8,83,72,65,71,67,58,99,86,64,29.94,29.84,9,3,18,0.05
2013-8-9,77,73,70,77,72,69,99,98,93,29.85,29.59,19,5,19,1.02
2013-8-10,81,72,65,71,56,41,99,62,26,29.85,29.64,23,8,23,0.01
2013-8-11,80,68,56,54,48,40,82,51,29,29.92,29.83,14,4,15,0.00
2013-8-12,84,72,60,63,54,44,92,59,27,29.86,29.75,14,4,14,0.00
2013-8-13,78,69,65,68,64,58,96,84,59,29.76,29.16,9,3,9,0.01
2013-8-14,73,66,58,65,49,42,96,57,33,29.81,29.51,30,11,30,0.00
2013-8-15,77,66,54,52,46,36,82,53,25,29.95,29.37,17,5,17,0.00
2013-8-16,80,68,55,56,48,39,78,52,28,30.03,29.45,14,4,14,0.00
2013-8-17,87,72,60,57,51,42,77,51,22,30.11,30.03,10,3,10,0.00
2013-8-18,85,70,60,61,55,42,87,61,26,30.10,29.40,9,2,9,0.00
2013-8-19,81,71,62,60,56,52,87,62,37,30.59,29.36,14,5,14,0.00
2013-8-20,86,75,66,59,56,47,76,53,30,29.93,29.82,14,5,14,0.00
2013-8-21,88,77,67,61,57,51,73,52,29,29.99,29.86,16,4,16,0.00
2013-8-22,84,75,66,70,64,60,95,71,49,29.88,29.67,18,6,18,0.00
2013-8-23,83,73,63,70,53,41,94,55,24,29.96,29.67,16,7,16,0.00
2013-8-24,82,67,56,49,40,19,67,43,11,30.16,29.96,15,4,15,0.00
2013-8-25,83,70,56,52,45,27,81,45,14,30.19,30.01,15,5,15,0.00
2013-8-26,80,71,64,67,58,51,96,64,45,30.02,29.72,27,7,27,0.06
2013-8-27,88,75,68,72,67,58,99,80,38,29.74,29.67,16,4,16,0.11
2013-8-28,92,76,65,71,64,56,95,70,31,29.79,29.68,10,2,10,0.02
2013-8-29,68,64,60,66,63,59,99,96,92,29.90,29.76,14,5,14,0.05
2013-8-30,85,70,59,68,63,58,99,80,44,29.86,29.67,14,6,14,0.00
2013-8-31,79,74,68,73,71,68,99,92,80,29.67,29.63,16,6,16,0.00
2013-9-1,83,73,68,77,72,68,99,97,78,29.72,29.63,19,3,19,0.80
2013-9-2,79,73,0,78,73,70,99,98,89,29.93,29.13,10,2,10,0.12
2013-9-3,81,72,63,71,66,55,99,83,60,29.99,29.88,17,4,17,0.01
2013-9-4,80,69,59,59,52,45,94,60,30,30.10,29.98,18,7,18,0.00
2013-9-5,73,64,54,62,46,19,89,58,15,30.31,30.03,16,5,16,0.00
2013-9-6,71,58,47,42,33,19,66,42,16,30.39,30.25,13,4,13,0.00
2013-9-7,79,65,52,52,42,31,65,45,19,30.25,30.03,15,6,15,0.00
2013-9-8,74,64,52,59,46,24,91,56,18,30.25,29.93,27,8,27,0.00
2013-9-9,70,58,46,48,36,25,76,47,21,30.38,29.85,14,5,14,0.00
2013-9-10,76,66,55,71,63,48,99,91,76,29.86,29.75,19,8,19,0.04
2013-9-11,95,81,69,77,71,63,99,74,41,29.80,29.67,36,7,36,0.00
2013-9-12,87,76,66,74,70,66,99,82,51,29.70,29.40,24,7,24,0.66
2013-9-13,79,68,58,68,62,52,99,83,46,29.49,29.04,21,5,21,0.07
2013-9-14,69,59,53,52,48,43,86,67,41,29.77,29.49,17,7,17,0.00
2013-9-15,71,60,49,50,43,30,89,59,23,29.87,29.76,14,4,14,0.00
2013-9-16,69,58,45,51,44,32,80,60,38,29.95,29.73,21,6,21,0.00
2013-9-17,68,51,39,41,30,21,82,49,19,30.02,29.92,15,5,15,0.00
2013-9-18,74,59,0,44,35,13,86,49,10,29.93,29.78,13,4,13,0.00
2013-9-19,81,66,52,48,40,22,66,42,14,30.15,29.74,13,4,13,0.00
2013-9-20,86,67,51,56,46,30,92,54,14,30.11,30.02,10,2,10,0.00
2013-9-21,76,65,55,65,58,54,100,82,48,30.05,29.75,21,7,21,0.00
2013-9-22,70,63,50,68,51,39,100,68,36,29.87,29.64,23,9,23,0.31
2013-9-23,65,53,44,40,34,28,74,51,27,30.03,29.87,22,8,22,0.00
2013-9-24,69,54,42,39,31,12,78,47,13,30.02,29.84,19,7,19,0.00
2013-9-25,75,60,49,46,39,35,69,48,25,30.01,29.89,14,4,14,0.00
2013-9-26,70,59,52,47,41,32,75,55,26,30.14,30.00,11,3,11,0.00
2013-9-27,67,58,52,50,46,42,87,66,42,30.28,30.14,14,4,14,0.00
2013-9-28,77,61,52,49,46,37,86,60,25,30.35,30.27,14,3,14,0.00
2013-9-29,74,58,45,56,40,18,97,63,12,30.29,30.13,11,2,11,0.00
2013-9-30,75,57,42,50,41,27,95,62,21,30.14,29.99,12,2,12,0.00
2013-10-1,79,66,51,52,44,31,84,50,20,29.99,29.88,16,5,16,0.00
2013-10-2,79,68,56,53,49,46,83,52,34,29.99,29.89,22,7,22,0.00
2013-10-3,77,66,56,47,39,19,66,41,13,30.12,30.00,13,4,13,0.00
2013-10-4,70,60,54,56,48,33,91,67,33,30.14,30.06,13,2,13,0.22
2013-10-5,73,63,58,59,56,52,100,80,48,30.15,30.07,8,2,8,0.06
2013-10-6,59,55,52,56,54,52,100,96,86,30.23,30.13,14,4,14,0.39
2013-10-7,77,62,54,72,60,52,99,94,68,30.14,29.83,29,6,29,0.28
2013-10-8,69,57,47,52,35,19,82,48,16,30.29,29.92,18,6,18,0.00
2013-10-9,65,52,42,43,36,29,87,57,30,30.11,30.00,15,5,15,0.00
2013-10-10,59,51,42,49,45,40,93,79,64,30.00,29.83,10,4,10,0.00
2013-10-11,72,58,48,50,41,23,94,58,18,29.82,29.74,14,5,14,0.00
2013-10-12,57,53,50,54,49,38,96,85,58,30.03,29.80,15,6,15,0.00
2013-10-13,60,52,45,49,45,41,96,79,57,30.08,30.01,14,4,14,0.00
2013-10-14,72,53,37,50,34,12,100,58,11,30.04,29.89,8,2,8,0.00
2013-10-15,74,59,51,47,44,37,82,59,28,29.91,29.81,10,2,10,0.00
2013-10-16,60,54,49,54,48,45,100,83,60,29.83,29.57,8,2,8,0.00
2013-10-17,75,62,51,60,53,45,100,77,38,29.57,29.38,17,5,17,0.02
2013-10-18,66,60,49,61,43,28,100,59,27,29.57,29.27,31,9,31,0.04
2013-10-19,68,55,44,42,33,20,71,46,16,29.62,29.40,18,3,18,0.00
2013-10-20,61,52,43,50,29,3,93,50,10,29.67,29.35,24,6,24,0.02
2013-10-21,69,54,42,37,25,8,64,37,10,29.76,29.64,19,5,19,0.00
2013-10-22,66,53,44,48,39,27,93,61,36,29.64,29.37,22,6,22,0.00
2013-10-23,50,45,38,32,23,15,65,43,24,29.46,29.24,15,3,15,0.00
2013-10-24,52,44,36,28,15,-5,64,36,10,29.54,29.31,27,9,27,0.00
2013-10-25,50,41,34,28,17,6,75,42,17,29.79,29.54,22,6,22,0.00
2013-10-26,55,44,32,26,16,-5,73,39,10,29.79,29.52,29,8,29,0.00
2013-10-27,54,46,40,29,20,5,58,37,14,29.71,29.44,25,7,25,0.00
2013-10-28,57,45,35,25,19,11,65,38,16,29.98,29.70,27,7,27,0.00
2013-10-29,52,38,30,13,3,-13,45,26,10,30.07,29.98,14,3,14,0.00
2013-10-30,55,42,32,33,23,9,78,47,29,30.00,29.83,14,3,14,0.00
2013-10-31,60,50,38,58,47,32,96,89,73,29.88,29.44,19,4,19,0.13
2013-11-1,67,62,56,62,54,47,97,76,53,29.44,29.13,39,15,39,0.18
2013-11-2,70,56,44,47,34,18,81,50,14,29.39,29.25,16,3,16,0.00
2013-11-3,50,41,29,41,14,-13,79,40,10,30.04,29.39,17,8,17,0.00
2013-11-4,46,33,26,11,-2,-15,47,25,10,30.31,30.04,16,4,16,0.00
2013-11-5,55,40,26,28,14,1,61,39,12,30.32,30.14,12,3,12,0.00
2013-11-6,62,50,40,44,34,26,78,56,26,30.14,29.69,22,8,22,0.00
2013-11-7,63,52,38,55,44,24,88,75,58,29.69,29.34,34,11,34,0.08
2013-11-8,47,38,30,27,14,3,65,40,18,29.73,29.47,30,8,30,0.00
2013-11-9,45,37,29,18,11,-3,57,36,14,29.84,29.65,21,5,21,0.00
2013-11-10,56,44,38,36,26,18,78,52,25,29.65,29.40,24,8,24,0.01
2013-11-11,51,45,37,16,9,-4,41,25,10,29.75,29.53,22,10,22,0.00
2013-11-12,57,33,25,31,13,-1,79,44,24,29.93,29.52,21,9,30,0.04
2013-11-13,36,29,22,4,-6,-20,45,23,10,29.92,29.78,24,8,24,0.01
2013-11-14,52,39,28,4,-4,-13,33,18,10,29.78,29.69,23,9,23,0.00
2013-11-15,62,47,36,10,-4,-15,24,12,10,29.84,29.75,19,6,19,0.00
2013-11-16,66,51,41,24,8,-6,51,20,10,29.96,29.82,11,3,11,0.00
2013-11-17,53,44,38,44,35,23,93,72,51,29.94,29.49,7,2,7,0.04
2013-11-18,65,54,46,60,36,18,100,61,17,29.50,29.21,28,11,28,0.19
2013-11-19,46,38,29,20,8,-2,40,29,16,29.91,29.33,27,12,27,0.01
2013-11-20,44,32,25,6,-3,-16,42,24,10,30.24,29.91,24,7,24,0.00
2013-11-21,50,37,24,26,5,-14,55,29,10,30.25,30.00,15,5,15,0.00
2013-11-22,48,44,41,46,38,26,92,81,55,30.00,29.47,13,4,14,0.09
2013-11-23,48,38,26,44,13,-10,87,39,12,29.78,29.44,36,14,36,0.34
2013-11-24,27,21,17,10,-16,-30,57,22,10,29.82,29.45,40,18,40,0.01
2013-11-25,34,19,14,-1,-22,-31,28,15,10,29.98,29.81,21,9,21,0.00
2013-11-26,39,34,28,29,9,-12,86,40,15,29.95,29.66,20,4,20,0.15
2013-11-27,61,46,33,61,44,24,100,91,67,29.66,28.91,27,10,27,1.46
2013-11-28,35,28,22,24,-2,-22,66,31,10,30.04,29.13,34,14,34,0.01
2013-11-29,34,26,17,4,-9,-24,46,24,10,30.34,30.04,18,6,18,0.00
2013-11-30,34,21,14,10,-10,-21,46,27,10,30.39,30.03,11,4,11,0.00
2013-12-1,36,33,28,34,27,10,94,78,47,30.02,29.65,10,3,10,0.11
2013-12-2,40,37,35,40,36,34,100,97,94,29.65,29.55,8,2,8,0.00
2013-12-3,51,39,31,38,27,16,97,68,27,29.60,29.49,16,4,16,0.00
2013-12-4,47,36,31,24,18,6,71,50,19,29.82,29.59,14,3,14,0.00
2013-12-5,54,40,34,54,33,17,100,77,44,29.83,29.56,19,3,19,0.04
2013-12-6,54,46,32,54,42,29,100,86,59,29.77,29.50,17,6,17,0.28
2013-12-7,38,32,27,30,20,4,90,63,35,30.06,29.70,17,3,17,0.12
2013-12-8,29,26,20,7,2,-6,52,35,22,30.20,30.06,10,3,10,0.00
2013-12-9,34,29,23,32,24,4,92,80,40,30.10,29.53,11,2,11,0.01
2013-12-10,34,30,22,30,20,1,91,67,35,29.62,29.42,0,0,0,0.00
2013-12-11,30,23,19,8,5,-1,60,45,28,29.83,29.62,21,6,21,0.00
2013-12-12,25,19,13,6,-12,-29,57,29,10,29.89,29.67,20,7,20,0.00
2013-12-13,28,20,13,6,-7,-14,46,30,17,29.99,29.61,24,8,24,0.00
2013-12-14,15,11,8,5,-12,-35,65,37,10,30.18,29.73,17,7,17,0.00
2013-12-15,28,22,14,15,10,3,72,60,37,29.73,29.08,24,10,24,0.00
2013-12-16,28,22,13,10,-11,-26,58,26,10,29.81,29.37,29,8,29,0.00
2013-12-17,17,10,4,8,-5,-15,66,50,30,29.86,29.56,22,6,22,0.00
2013-12-18,33,24,16,12,6,-2,70,48,24,29.70,29.50,22,8,22,0.00
2013-12-19,42,32,20,8,3,-12,56,31,10,29.74,29.59,31,8,31,0.00
2013-12-20,53,42,34,16,10,0,42,29,12,29.74,29.55,14,6,14,0.00
2013-12-21,56,45,40,40,29,15,71,52,33,29.61,29.51,14,8,14,0.00
2013-12-22,66,47,34,58,43,31,100,85,47,29.65,29.42,32,8,32,0.01
2013-12-23,41,34,31,40,32,28,100,93,69,29.73,29.58,16,4,16,0.30
2013-12-24,37,30,23,29,8,-12,78,41,16,29.83,29.68,24,8,24,0.00
2013-12-25,26,18,12,-8,-18,-29,35,20,10,30.13,29.83,27,7,27,0.00
2013-12-26,30,24,16,20,6,-14,67,49,25,30.09,29.71,19,4,19,0.00
2013-12-27,34,28,22,11,5,-3,58,39,21,29.90,29.81,18,7,18,0.00
2013-12-28,47,36,27,12,7,-7,50,32,10,29.84,29.63,21,8,21,0.00
2013-12-29,42,38,34,32,20,8,85,52,26,29.67,29.08,24,6,24,0.70
2013-12-30,40,30,15,30,6,-20,80,42,10,29.77,29.19,29,9,29,0.01
2013-12-31,25,18,10,2,-11,-27,46,30,10,29.80,29.63,29,6,29,0.00
2014-1-1,28,20,15,-2,-20,-28,39,16,10,29.98,29.79,21,6,21,0.00
2014-1-2,19,10,-1,5,-4,-16,59,53,40,29.95,29.44,33,12,33,0.00